Sisters Island, British Columbia

4:55 PM PDT on May 27, 2017 (GMT -0700)
Sisters Island

Weather History for CWGT - March, 2013

Change the Weather History Date:

Thursday, March 28, 2013

  Actual Average Record
Temperature  
Mean Temperature 52 °F -  
Max Temperature 58 °F - - ()
Min Temperature 46 °F - - ()
Degree Days  
Heating Degree Days 13    
Growing Degree Days 2 (Base 50)    
Moisture  
Dew Point 44 °F    
Average Humidity 79    
Maximum Humidity 92    
Minimum Humidity 48    
Precipitation  
Precipitation 0.00 in - - ()
Sea Level Pressure  
Sea Level Pressure 30.06 in    
Wind  
Wind Speed 5 mph ()    
Max Wind Speed 12 mph    
Max Gust Speed -    
T = Trace of Precipitation, MM = Missing Value Source: Averaged Metar Reports

Daily Weather History Graph

Daily Weather History Graph

Search for Another Location

Airport or City:

Trip Planner

Search our weather history database for the weather conditions in past years. The results will help you decide how hot, cold, wet, or windy it might be!

Date:

Astronomy

Mar. 28, 2013 Rise Set
Actual Time 7:02 AM PDT 7:43 PM PDT
Civil Twilight 6:30 AM PDT 8:15 PM PDT
Nautical Twilight 5:52 AM PDT 8:54 PM PDT
Astronomical Twilight 5:11 AM PDT 9:35 PM PDT
Moon 9:56 PM PDT (3/28) 7:23 AM PDT (3/28)
Length of Visible Light 13h 45m
Length of Day
12h 41m
Full, 98% of the Moon is Illuminated
Mar 28
Full
Apr 2
Last Quarter
Apr 10
New
Apr 18
First Quarter
Apr 25
Full

Hourly Weather History & Observations

Time (PDT) Temp. Dew Point Humidity Pressure Visibility Wind Dir Wind Speed Gust Speed Precip Events Conditions
12:00 AM 49.5 °F 43.2 °F 79% 29.99 in - SE 5.8 mph - N/A   Unknown
1:00 AM 50.2 °F 42.4 °F 75% 30.00 in - East 1.2 mph - N/A   Unknown
2:00 AM 48.4 °F 45.3 °F 89% 30.01 in - SW 3.5 mph - N/A   Unknown
3:00 AM 48.4 °F 45.1 °F 89% 30.01 in - SW 1.2 mph - N/A   Unknown
4:00 AM 47.8 °F 44.1 °F 87% 30.01 in - WNW 8.1 mph - N/A   Unknown
5:00 AM 48 °F 45 °F 84% 30.02 in - NW 8.1 mph - -  
5:00 AM 47.7 °F 44.6 °F 89% 30.02 in - NW 8.1 mph - N/A   Unknown
6:00 AM 47.3 °F 44.8 °F 91% 30.02 in - NW 11.5 mph - N/A   Unknown
7:00 AM 47.1 °F 44.8 °F 92% 30.04 in - NW 9.2 mph - N/A   Unknown
8:00 AM 46.9 °F 44.2 °F 90% 30.05 in - NW 8.1 mph - N/A   Unknown
9:00 AM 46.6 °F 43.5 °F 89% 30.06 in - NW 10.4 mph - N/A   Unknown
10:00 AM 47.3 °F 43.9 °F 88% 30.07 in - NW 8.1 mph - N/A   Unknown
11:00 AM 49 °F 44 °F 76% 30.09 in - NW 9.2 mph - -  
11:00 AM 49.5 °F 43.9 °F 81% 30.09 in - NW 9.2 mph - N/A   Unknown
12:00 PM 48.0 °F 43.7 °F 85% 30.09 in - NW 8.1 mph - N/A   Unknown
1:00 PM 50.5 °F 44.1 °F 78% 30.09 in - NNW 5.8 mph - N/A   Unknown
2:00 PM 52.5 °F 44.6 °F 74% 30.09 in - North 4.6 mph - N/A   Unknown
3:00 PM 54.5 °F 45.1 °F 71% 30.07 in - North 3.5 mph - N/A   Unknown
4:00 PM 55.0 °F 43.7 °F 66% 30.07 in - North 4.6 mph - N/A   Unknown
5:00 PM 58 °F 44 °F 48% 30.06 in - North 2.3 mph - -  
5:00 PM 57.6 °F 43.5 °F 59% 30.06 in - North 2.3 mph - N/A   Unknown
6:00 PM 55.9 °F 43.0 °F 62% 30.06 in - North 1.2 mph - N/A   Unknown
7:00 PM 55.8 °F 39.7 °F 55% 30.06 in - NW 1.2 mph - N/A   Unknown
8:00 PM 49.5 °F 45.1 °F 85% 30.07 in - NNE 1.2 mph - N/A   Unknown
9:00 PM 51.6 °F 42.6 °F 71% 30.08 in - NE 1.2 mph - N/A   Unknown
10:00 PM 48.9 °F 45.1 °F 87% 30.10 in - WNW 2.3 mph - N/A   Unknown
11:00 PM 48 °F 45 °F 85% 30.12 in - SE 4.6 mph - -  
11:00 PM 48.4 °F 45.0 °F 88% 30.12 in - SE 4.6 mph - N/A   Unknown